Location: Zeulenroda
(50.6481°N, 11.9815°E)
Time: 07:31:33
(UTC+00:00)

Daily predictions for brighter satellites

Satellite Brightness Start Highest point End
(mag) Time Altitude Azimuth Time Altitude Azimuth Time Altitude Azimuth
Cosmos 2369 Rocket 3.4 16:18:43 10° WSW 16:24:04 41° NW 16:29:29 10° NNE
Cosmos 2297 Rocket 2.6 16:18:41 10° NNW 16:24:07 43° NE 16:29:30 10° ESE
ERS-2 2.8 16:21:18 10° NNE 16:24:40 34° E 16:28:00 10° SSE
Meteor 1-11 4.3 16:19:37 10° N 16:25:20 70° ENE 16:31:05 10° SSE
Aureole 3 Rocket 4.5 16:22:31 10° SE 16:25:51 22° E 16:30:01 10° NNE
COSMOS 2487 3.6 16:24:22 10° NNW 16:27:44 48° WSW 16:31:02 10° S
Cosmos 1340 3.7 16:25:14 10° NNE 16:28:22 24° ENE 16:31:30 10° ESE
COSMO-SKYMED 1 3.8 16:27:06 10° NE 16:30:32 22° E 16:33:56 10° SE
H-2A R/B 4.4 16:28:27 10° SSW 16:31:54 38° W 16:35:24 10° NNW
CORIOLIS 4.1 16:27:02 10° SSE 16:32:22 80° ENE 16:37:46 10° NNW
H-2A R/B 2.1 16:28:33 10° NNE 16:32:46 84° WNW 16:36:52 10° SSW
FengYun 1-2 T 4.3 16:27:55 10° SSE 16:33:31 66° ENE 16:39:06 10° N
Cosmos 1110 Rocket 4.2 16:29:34 10° S 16:34:41 55° ESE 16:39:46 10° NNE
NOSS 2-2 (C) 4.4 16:31:29 10° NW 16:36:41 73° NE 16:43:58 10° SE
Lacrosse 5 2.6 16:34:21 10° W 16:39:12 45° NNW 16:44:06 10° ENE
Timation 2 Rocket 4.1 16:32:36 10° NNW 16:39:12 80° ENE 16:46:01 10° SE
Cosmos 1825 Rocket 3.5 16:35:32 10° N 16:40:01 80° ENE 16:44:27 10° SSE
ADEOS Rocket 3.4 16:36:25 10° NNE 16:42:45 81° WNW 16:49:48 10° SSW
Envisat 4.0 16:38:54 10° S 16:43:50 51° W 16:48:49 10° NNW
Cosmos 292 Rocket 4.1 16:39:24 10° S 16:43:57 45° ESE 16:48:34 10° NE
Aureole 3 3.9 16:42:11 10° SE 16:44:34 21° E 16:46:54 10° NE
Meteor 2-21 Rocket 4.4 16:38:35 10° N 16:44:47 74° ENE 16:50:55 10° SSE
Okean O Rocket 2.1 16:41:33 10° S 16:45:52 67° WSW 16:50:14 10° NNW
FALCON 9 DEB 3.4 16:42:31 10° W 16:45:55 55° N 16:48:52 13° ENE
YAOGAN 1 3.5 16:44:15 10° ESE 16:47:51 26° ENE 16:51:28 10° N
ERBS 3.7 16:45:18 10° WNW 16:48:17 29° N 16:51:09 11° NE
USA 281 3.7 16:42:09 10° SSE 16:48:40 66° WSW 16:55:14 10° NNW
FALCON 9 DEB 4.2 16:46:01 10° SSW 16:48:50 28° SE 16:51:05 14° E
FALCON 9 DEB 4.0 16:50:12 10° SSW 16:53:04 31° SE 16:55:10 15° E
CZ-2C R/B 3.8 16:48:59 10° SE 16:54:10 36° ENE 16:59:15 10° N
Feng Yun 1-1 Rocket 4.4 16:48:18 10° SSE 16:54:12 75° ENE 17:00:08 10° NNW
Cosmos 2219 3.2 16:48:45 10° NNW 16:54:31 70° ENE 17:00:16 10° SE
SMAP 3.9 16:50:13 10° S 16:54:47 56° W 16:59:24 10° NNW
Cosmos 1455 4.0 16:54:58 10° ESE 16:56:10 13° E 16:56:10 13° E
Cosmos 1726 Rocket 3.5 16:53:38 10° S 16:57:55 62° E 17:02:16 10° NNE
Cosmos 1943 Rocket 4.3 16:54:19 10° W 16:58:22 20° NW 17:02:25 10° N
Cosmos 1553 Rocket 4.4 16:55:08 10° SSE 17:00:59 41° E 17:06:45 10° NNE
USA 307 3.0 16:57:00 10° WNW 17:01:18 69° NNE 17:04:41 16° E
Cosmos 2082 4.2 16:57:39 10° NNW 17:03:06 42° NE 17:08:31 10° ESE
Meteor 2-10 Rocket 4.4 16:59:33 10° SE 17:03:54 27° E 17:08:09 10° NNE
CZ-4B R/B 1.2 17:01:29 10° NNE 17:04:45 88° WNW 17:07:55 10° SSW
Cosmos 2228 3.0 17:00:44 10° S 17:04:59 86° WNW 17:09:18 10° N
FALCON 9 DEB 3.8 17:02:01 10° SW 17:05:02 36° SSE 17:06:44 20° E
Cosmos 1939 Rocket 2.7 17:01:45 10° SSE 17:05:41 68° ENE 17:09:34 10° N
USA 308 2.9 17:01:51 10° WNW 17:06:09 71° NNE 17:09:20 17° E
ATLAS 5 CENTAUR R/B 3.5 17:05:05 10° WNW 17:08:45 24° NNW 17:12:53 10° NE
CZ-4 R/B 4.4 17:06:07 10° SSE 17:10:14 62° ENE 17:14:22 10° N
Helios 1A Rocket 2.9 17:08:48 10° SSE 17:12:51 59° ENE 17:16:54 10° N
Cosmos 1606 Rocket 3.7 17:09:11 10° SSW 17:13:33 76° WNW 17:18:00 10° N
GENESIS II 4.3 17:12:32 10° SW 17:16:35 81° NW 17:20:07 13° NE
FALCON 9 DEB 3.4 17:13:32 10° SW 17:16:37 44° SSE 17:17:56 27° E
ARGOS 3.9 17:13:10 11° ESE 17:17:41 31° ENE 17:22:25 10° N
SKYMED 2 3.5 17:14:34 10° NNE 17:18:54 62° ESE 17:23:11 10° S
Okean-O 2.6 17:14:57 10° SSE 17:19:19 62° ENE 17:23:43 10° N
Cosmos 1689 Rocket 2.0 17:17:19 10° NNE 17:20:11 55° E 17:23:01 10° S
SL-08 R/B 4.4 17:14:45 10° N 17:20:57 70° ENE 17:27:02 10° SSE
Cosmos 1656 3.9 17:17:18 10° S 17:22:37 48° ESE 17:28:02 10° NE
Cosmos 1745 Rocket 4.1 17:17:56 10° N 17:24:07 56° ENE 17:30:20 10° SSE
Cosmos 1400 Rocket 2.7 17:21:10 10° S 17:25:15 72° E 17:29:21 10° NNE
H-2A R/B 2.4 17:22:01 10° SE 17:27:10 46° ENE 17:32:22 10° N
PSLV R/B 3.9 17:23:01 10° NNE 17:27:12 61° ESE 17:31:18 10° S
Ariane Rocket 4.2 17:27:38 21° ENE 17:28:05 21° ENE 17:31:51 10° N
Cosmos 2227 Rocket 2.2 17:22:47 10° NNW 17:28:29 89° WSW 17:34:09 10° SSE
GEOS 3 Rocket 3.7 17:24:32 16° ESE 17:28:46 64° NE 17:34:07 10° NW
Cosmos 2058 3.0 17:24:57 10° N 17:28:58 51° ENE 17:32:56 10° SSE
CZ-4 R/B 1.1 17:25:47 10° SSE 17:29:38 69° ENE 17:33:30 10° N
Cosmos 1892 2.6 17:26:26 10° N 17:30:19 72° ENE 17:34:12 10° SSE
Cosmos 2263 Rocket 3.3 17:29:13 10° NNW 17:34:00 26° NE 17:35:34 23° ENE
Cosmos 1408 2.6 17:30:56 10° N 17:34:31 52° ENE 17:37:14 16° SSE
CSL-04 Rocket 3.8 17:30:05 10° SE 17:35:28 54° ENE 17:40:50 10° N
BREEZE-M R/B 3.5 17:28:12 10° W 17:36:03 74° S 17:37:09 37° ESE
Cosmos 1386 Rocket 4.5 17:31:11 10° N 17:37:36 65° ENE 17:43:53 10° SSE
NOSS 3-4 (A) 4.1 17:33:49 10° NW 17:40:19 48° NNE 17:44:11 26° E
NOSS 3-4 (C) 4.1 17:33:56 10° NW 17:40:25 48° NNE 17:44:16 26° E
CZ-4C R/B 3.6 17:35:01 10° NW 17:40:52 33° NNE 17:44:25 23° ENE
Meteor 2-1 Rocket 4.3 17:36:53 10° SSE 17:42:09 49° E 17:47:28 10° NNE
Cosmos 1300 4.0 17:40:05 10° SSW 17:43:42 41° WNW 17:47:22 10° N
Cosmos 2058 Rocket 3.4 17:42:28 10° SSW 17:46:57 70° WNW 17:51:29 10° N
Cosmos 1697 Rocket 3.0 17:42:00 10° S 17:47:13 41° ESE 17:49:37 27° ENE
SL-4 R/B 1.6 17:44:42 10° W 17:48:17 83° N 17:49:04 54° E
SeaSat 1 2.6 17:46:28 32° ESE 17:48:30 52° NE 17:53:19 10° NNW
CZ-2D R/B 3.9 17:44:55 10° S 17:48:39 55° W 17:52:25 10° NNW
Cosmos 1346 Rocket 2.7 17:45:15 10° NNW 17:49:16 87° E 17:53:15 10° SSE
CRYOSAT 2 4.3 17:46:21 10° NNE 17:51:10 57° E 17:55:56 10° S
Cosmos 1825 2.2 17:47:47 10° N 17:51:32 54° ENE 17:51:38 53° E
NOSS 3-3 (A) 4.2 17:46:31 10° S 17:51:59 43° ESE 17:54:18 31° ENE
USA 305 2.9 17:47:43 10° WNW 17:52:02 77° SSW 17:53:27 41° SE
NOSS 3-3 (C) 4.2 17:46:37 10° S 17:52:07 43° ESE 17:54:24 31° ENE
Cosmos 1709 Rocket 4.1 17:47:38 10° N 17:53:54 54° ENE 17:59:42 12° SSE
USA 215 3.4 17:51:39 29° E 17:55:00 60° NNE 18:01:25 10° WNW
Cosmos 44 3.7 17:51:16 10° SW 17:55:47 60° NW 17:59:04 20° NNE
Cosmos 1315 Rocket 2.8 17:52:33 10° S 17:56:20 55° ESE 17:56:20 55° ESE
SJ-11-01 4.1 17:53:44 10° SSE 17:58:23 78° ENE 18:03:05 10° NNW
USA 306 3.0 17:54:08 10° WNW 17:58:26 72° SSW 17:59:35 46° SE
BREEZE-M R/B 3.7 17:58:07 10° W 18:02:12 76° S 18:05:18 35° ESE
ATLAS 2AS CENTAUR R/B 3.1 17:55:03 10° NW 18:02:32 52° NNE 18:05:17 35° E
Cosmos 968 Rocket 4.1 17:58:36 10° NNW 18:03:43 57° WSW 18:08:46 10° S
SJ 16-02 3.7 18:03:30 10° NNE 18:04:08 12° NNE 18:04:08 12° NNE
HJ-1C 3.9 18:07:27 50° N 18:07:27 50° N 18:10:03 10° NNW
COSMO-SKYMED 1 3.6 18:02:45 10° N 18:06:55 47° WNW 18:11:05 10° SW
MOS 1 Rocket 3.2 18:03:09 10° NNE 18:07:47 67° ESE 18:12:40 10° S
Cosmos 2297 Rocket 3.5 18:02:53 10° NW 18:08:10 40° WSW 18:13:23 10° S
Cosmos 1076 Rocket 3.4 18:04:58 10° N 18:09:15 86° WSW 18:11:35 26° S
Cosmos 1980 Rocket 3.5 18:04:56 10° S 18:07:19 23° SSE 18:07:19 23° SSE
Cosmos 1777 Rocket 4.3 18:05:52 10° NNW 18:10:50 44° ENE 18:10:50 44° ENE
IRS-1A Rocket 4.5 18:10:35 44° ENE 18:10:55 45° ENE 18:16:08 10° N
Cosmos 883 Rocket 4.4 18:05:54 10° S 18:11:54 60° E 18:17:56 10° NNE
Aureole 3 Rocket 4.4 18:08:42 10° SW 18:12:44 45° WNW 18:18:18 10° N
CSL-04 Debris 4.3 18:10:30 10° S 18:15:56 75° WSW 18:21:27 10° NNW
Cosmos 2315 Rocket 4.0 18:09:58 10° SSE 18:15:57 53° E 18:21:58 10° NNE
S3M 3.9 18:10:21 10° S 18:16:29 85° W 18:22:42 10° N
MetOp-A 4.5 18:22:01 46° NE 18:22:01 46° NE 18:26:35 10° N
Cosmos 2227 4.4 18:16:13 10° NNW 18:21:41 48° NE 18:21:43 48° NE
Lacrosse 5 2.4 18:18:07 10° WNW 18:22:59 44° N 18:23:30 42° NNE
FALCON 9 DEB 4.2 18:19:38 10° WNW 18:22:07 45° WNW 18:22:07 45° WNW
YAOGAN 1 3.8 18:19:42 10° S 18:23:47 41° W 18:27:55 10° NNW
ERBS 4.2 18:22:08 10° NW 18:24:02 24° NNW 18:24:02 24° NNW
Cosmos 2360 4.1 18:20:24 10° SSW 18:26:02 62° ESE 18:26:15 61° ESE
Cosmos 1812 Rocket 3.8 18:26:55 10° SSW 18:35:45 10° N 18:30:36 61° SSW
Cosmos 1455 3.1 18:28:25 10° SSW 18:31:13 43° SW 18:31:13 43° SW
CZ-2C R/B 4.3 18:28:25 10° S 18:33:56 45° W 18:39:20 10° NNW
Meteor 2-3 Rocket 3.9 18:29:40 10° N 18:34:43 56° NE 18:34:43 56° NE
USA 307 3.9 18:37:12 10° WNW 18:40:52 41° SW 18:40:52 41° SW
Meteor 2-10 Rocket 4.4 18:40:37 10° SSW 18:45:43 48° WNW 18:50:41 10° N
USA 308 4.1 18:42:03 10° WNW 18:45:31 38° WSW 18:45:31 38° WSW
Cosmos 2278 Rocket 4.5 18:51:48 10° N 18:53:39 12° NNE 18:53:39 12° NNE
ATLAS 5 CENTAUR R/B 3.8 18:51:23 10° NW 18:55:00 20° N 18:55:00 20° N
ARGOS 3.9 18:54:41 24° SSW 18:57:45 49° W 19:03:02 10° NNW
Cosmos 2369 3.8 18:57:17 10° SW 19:02:59 71° WNW 19:03:11 70° NW
CZ-4 R/B 4.5 19:03:25 10° WSW 19:05:08 13° W 19:06:52 10° WNW
Ariane Rocket 3.7 19:07:50 50° NW 19:07:50 50° NW 19:11:41 10° NNW
H-2A R/B 3.7 19:01:53 10° SSW 19:06:44 33° W 19:11:39 10° NNW
Cosmos 1844 Rocket 4.3 19:02:25 10° NNW 19:05:18 24° N 19:05:18 24° N
Cosmos 2263 Rocket 2.8 19:12:50 10° NNW 19:17:16 55° NW 19:17:16 55° NW
SeaSat 1 4.0 19:26:15 30° WSW 19:26:15 30° WSW 19:30:35 10° NW
CZ-4C R/B 3.0 19:23:34 10° NW 19:29:36 66° N 19:29:36 66° N
Cosmos 1697 Rocket 3.7 19:25:54 10° WSW 19:31:13 42° NW 19:31:25 42° NW
NOSS 3-4 (A) 4.1 19:24:43 10° NW 19:31:35 62° SW 19:31:39 62° SW
NOSS 3-4 (C) 4.0 19:24:50 10° NW 19:31:40 62° SW 19:31:43 62° SW
USA 215 3.5 19:39:00 62° W 19:39:00 62° W 19:44:32 10° WNW
SJ 16-02 4.3 19:40:51 10° NNW 19:41:07 12° NNW 19:41:07 12° NNW
ATLAS 2AS CENTAUR R/B 3.3 19:46:23 10° NW 19:52:43 53° W 19:52:43 53° W
Lacrosse 5 4.3 20:01:17 10° WNW 20:02:41 19° WNW 20:02:41 19° WNW
